User: anonymous   Login
Location: Unspecified
(0.0000°N, 0.0000°E)
Time: 04:34:53
(UTC+00:00)
Language:

STARLINK-33728 - Orbit

View from above orbital plane
View from above orbital plane
View from above satellite
View from above satellite

Ground track
Ground track

The orbit is defined by the following mean orbital elements,

1 63715U          26145.51398477 +.00000000 +00000-0 +44547-3 0 00004
2 63715  53.1574 222.5746 0001119  77.3211 282.7915 15.30207758    02
Epoch (UTC): 25 May 2026 12:20:08
Eccentricity: 0.0001119
inclination: 53.1574°
perigee height: 474 km
apogee height: 476 km
right ascension of ascending node: 222.5746°
argument of perigee: 77.3211°
revolutions per day: 15.30207758
mean anomaly at epoch: 282.7915°

The dashed part of the orbit path shows where the satellite is in the earth's shadow,  

DLR